sat.trackr.live / text

‹ back to catalog

STARLINK-11290 [DTC]

NORAD 61000 · 2024-158L

PAYLOAD ACTIVE UNKNOWN

§ Identity

Operator
Country
US
Launch date
2024-09-05
Launch site
AFETR
Launch vehicle
Mass (kg)
RCS (m²)

Purposes: comms

External: N2YO · Heavens-Above · Gunter

§ Orbital elements

Epoch: 2026-05-24T19:59:52.914048Z

Period
91.74 min
Inclination
53.1588°
Eccentricity
0.0001777
Mean motion
15.69717655 rev/d
Perigee alt
358.5 km
Apogee alt
360.9 km
Semi-major
6,737.8 km
B*
1.8263e-5
RAAN
265.9159°
Arg perigee
52.9766°
Mean anomaly
307.1414°
Rev number
9,961

§ Raw data

STARLINK-11290 [DTC]1 61000U 24158L   26144.83325132  .00001624  00000+0  18263-4 0  99972 61000  53.1588 265.9159 0001777  52.9766 307.1414 15.69717655 99610

JSON: /api/v1/satellites/61000 · /tle

For live sub-satellite position, see the globe view (requires WebGL).

§ Visibility from observer

Set your observer location to see the next 7 days of passes ≥ 10°. The values pass through the URL so the page stays shareable.

No JS? Fill the form by hand. The geolocation button needs JavaScript.